Regional Weather Roundup
Issued by NWS

Home | Current Version | Previous Version | Text Only | Print | Product List | Glossary Off
Versions: 1 2 3 4 5 6 7 8 9 10 11 12 13 14 15 16 17 18 19 20 21 22 23 24 25 26 27

000
ASUS45 KSLC 231310
RWRUT

UTAH REGIONAL WEATHER ROUNDUP
NATIONAL WEATHER SERVICE SALT LAKE CITY UT
700 AM MDT FRI JUN 23 2017

UTZ001>011-023>025-231400-

NORTHERN UTAH

CITY           SKY/WX    TMP DP  RH WIND       PRES   REMARKS
BRIGHAM CITY   CLEAR     56  33  41 W3        30.14R
HILL AFB       CLEAR     56  34  43 SE17      30.15R
LOGAN          SUNNY     48  41  76 CALM      30.17R
OGDEN          CLEAR     59  35  40 S7        30.13R
SALT LAKE CITY CLEAR     63  37  38 E5        30.14R
TOOELE VALLEY  CLEAR     50  34  53 S7        30.16R
WENDOVER         N/A     63  23  21 SE3       30.17R
HEBER CITY     CLEAR     46  37  71 CALM      30.21S
WEST JORDAN    CLEAR     59  37  44 W3        30.17R

$$

UTZ011>015-024>027-231400-

CENTRAL/NORTHEAST UTAH

CITY           SKY/WX    TMP DP  RH WIND       PRES   REMARKS
PROVO AIRPORT  CLEAR     55  37  50 E5        30.06F
MOAB/CANYONLAN SUNNY     66  24  20 W5        30.06R
DELTA          CLEAR     61  30  31 N6        30.15R
PRICE          SUNNY     64  21  19 VRB5      30.18R
ROOSEVELT      SUNNY     54  36  50 CALM      30.22R
VERNAL         SUNNY     60  36  40 E6        30.20R

$$

UTZ013>016-019>022-027-231400-

SOUTHERN UTAH

CITY           SKY/WX    TMP DP  RH WIND       PRES   REMARKS
BRYCE CANYON   PTCLDY    50  31  48 W8        30.31R
CEDAR CITY     CLEAR     58  30  34 CALM      30.17R
MILFORD        CLEAR     61  22  22 N12       30.15R
ST GEORGE      SUNNY     84  28  13 E12       29.92R
HANKSVILLE     CLEAR     66  23  19 CALM      30.10R
BLANDING       SUNNY     64  30  27 NE3       30.18S

$$

REGIONAL REPORTS     COLORADO/ARIZONA

CITY           SKY/WX    TMP DP  RH WIND       PRES   REMARKS
CRAIG, CO      SUNNY     50  38  63 CALM      30.25R
GRAND JUNCTION SUNNY     69  32  25 NW10      30.09R
RIFLE, CO      SUNNY     55  38  52 CALM      30.18R
MONTROSE, CO   SUNNY     60  34  37 SE10      30.17R
CORTEZ, CO     SUNNY     56  39  53 NE6       30.14R
COLORADO CITY    N/A     55  32  41 SE6       30.09R
PAGE, AZ       CLEAR     78  34  20 NW3       30.01R
GRAND CANYON   CLEAR     47  27  45 CALM      30.21R
KINGMAN, AZ    CLEAR     73  42  32 S5        29.93R
FLAGSTAFF, AZ  CLEAR     53  32  44 SW5       30.25R

$$

REGIONAL REPORTS    NEVADA/IDAHO/WYOMING

CITY           SKY/WX    TMP DP  RH WIND       PRES   REMARKS
LAS VEGAS, NV  PTCLDY    90  28  11 SE5       29.82R
ELY, NY        CLEAR     42  24  49 S10       30.27R
ELKO, NV       PTCLDY    48  25  40 E6        30.23R
POCATELLO, ID  SUNNY     47  39  74 N6        30.23R
BURLEY, ID     CLEAR     49  41  74 CALM      30.20R
FORT BRIDGER,    N/A     47  32  55 NE7       30.33R
EVANSTON, WY   CLOUDY    48  34  58 E12       30.29R
ROCK SPRINGS,  SUNNY     46  28  49 NE9       30.31R
KEMMERER, WY     N/A     45  28  53 N8        30.33S

$$




USA.gov is the U.S. government's official web portal to all federal, state and local government web resources and services.